Flag for U.S.A. Weather past 2 weeks in Sheboygan, Wisconsin, U.S.A.

Now
53 °F

Sunny.


Feels Like: 50 °F
Forecast: 40 / 58 °F
Wind: 9 mph from Northeast

Location: Sheboygan County Memorial Airport

Current Time: Jun 1, 2015 at 8:52:52 PM

Latest Report: Jun 1, 2015 at 7:53 PM


Visibility: 10 mi

Pressure: 30.24 "Hg

Humidity: 55%

Dew point: 37 °F

Location of SheboyganLocation

Historic Weather in Sheboygan — Graph

°F

Sheboygan temperature yesterday

Maximum temperature yesterday: 55 °F (at 3:53 PM)
Minimum temperature yesterday: 40 °F (at 12:53 AM)
Average temperature yesterday: 48 °F

Past Weeks' High & Low Weather Summary

 TemperatureHumidityPressure
High80 °F (May 28, 12:53 PM)100% (May 25, 12:53 AM)30.34 "Hg (May 25, 12:53 AM)
Low30 °F (May 20, 4:53 AM)28% (May 21, 3:53 PM)29.66 "Hg (May 26, 6:53 PM)
Average57 °F69%30.07 "Hg
* Reported May 17 7:53 PM — Jun 1 7:53 PM, Sheboygan, Weather by CustomWeather, © 2015

Note: Actual official high and low records may vary slightly from our data, if they occured in-between our weather recording intervals... More about our weather records

Advertising

Sheboygan weather history for previous 24 hours

 ConditionsComfort  
Time TempWeatherWind HumidityBarometerVisibility
7:53 PM
Mon, Jun 1
53 °FSunny.9 mph55%30.24 "Hg10 mi
6:53 PM56 °FSunny.10 mph49%30.24 "Hg10 mi
5:53 PM58 °FSunny.13 mph47%30.24 "Hg10 mi
4:53 PM59 °FSunny.12 mph48%30.26 "Hg10 mi
3:53 PM59 °FSunny.14 mph44%30.27 "Hg10 mi
2:53 PM59 °FSunny.14 mph46%30.28 "Hg10 mi
1:53 PM58 °FSunny.12 mph46%30.29 "Hg10 mi
12:53 PM57 °FSunny.12 mph49%30.31 "Hg10 mi
11:53 AM56 °FSunny.10 mph51%30.32 "Hg10 mi
10:53 AM54 °FSunny.12 mph55%30.34 "Hg10 mi
9:53 AM53 °FSunny.12 mph55%30.33 "Hg10 mi
8:53 AM52 °FSunny.12 mph64%30.34 "Hg10 mi
7:53 AM49 °FSunny.10 mph77%30.34 "Hg10 mi
6:53 AM44 °FSunny.7 mph85%30.33 "Hg10 mi
5:53 AM39 °FClear.5 mph93%30.32 "Hg10 mi
4:53 AM39 °FClear.5 mph89%30.30 "Hg10 mi
3:53 AM39 °FClear.No wind93%30.29 "Hg10 mi
2:53 AM40 °FClear.5 mph89%30.29 "Hg10 mi
1:53 AM41 °FClear.7 mph82%30.29 "Hg10 mi
12:53 AM44 °FClear.9 mph71%30.28 "Hg10 mi
11:53 PM
Sun, May 31
45 °FClear.10 mph65%30.27 "Hg10 mi
10:53 PM48 °FClear.13 mph54%30.27 "Hg10 mi
9:53 PM45 °FClear.10 mph63%30.27 "Hg10 mi
8:53 PM45 °FSunny.9 mph63%30.26 "Hg10 mi
Weather by CustomWeather, © 2015

See weather overviewHow to use our weather pages